Location: Unspecified
(48.3300°N, 0.0000°E)
Time: 11:50:06
(UTC+00:00)

N. Korean satellite - Visible Passes

Search period start: 15 October 2019 00:00
Search period end: 25 October 2019 00:00
Orbit: 455 x 508 km, 97.2° (Epoch: 14 October)

Date Brightness Start Highest point End Pass type
(mag) Time Alt. Az. Time Alt. Az. Time Alt. Az.
15 Oct 9.1 05:21:54 10° NE 05:24:59 27° E 05:28:04 10° SSE visible
16 Oct 10.1 04:57:28 10° NE 04:59:31 14° E 05:01:33 10° SE visible
17 Oct 10.4 18:19:20 10° WSW 18:20:24 11° W 18:21:28 10° WNW visible
18 Oct 8.1 05:39:08 10° NNE 05:42:35 43° E 05:46:03 10° S visible
18 Oct 9.6 17:52:12 10° SW 17:54:52 21° W 17:57:35 10° NW visible
19 Oct 9.5 05:14:15 10° NE 05:17:09 22° E 05:20:04 10° SSE visible
20 Oct 10.3 04:50:08 10° ENE 04:51:38 12° E 04:53:11 10° ESE visible
21 Oct 7.0 05:56:29 10° NNE 06:00:06 71° ESE 06:03:45 10° S visible
21 Oct 10.1 18:10:41 10° WSW 18:12:30 14° W 18:14:20 10° WNW visible
22 Oct 8.5 05:31:22 10° NNE 05:34:44 35° E 05:38:08 10° SSE visible
22 Oct 9.1 17:44:04 10° SSW 17:46:59 26° W 17:49:57 10° NW visible
23 Oct 9.7 05:06:37 10° NE 05:09:17 19° E 05:11:58 10° SE visible
24 Oct 10.6 04:43:21 10° E 04:43:44 10° E 04:44:08 10° E visible
